KOMPSAT

导读

KOMPSAT-1(阿里郎1号)是韩国首颗多用途对地观测卫星,由韩国航空航天研究院研制,于1999年12月21日发射升空,运行于685公里高度的太阳同步轨道。卫星发射质量约510千克,设计寿命3年,搭载了CCD成像系统、海洋多光谱扫描仪及空间物理探测器,可完成韩国国土测绘、海洋水色观测及电离层环境监测任务,最终于2008年1月正式失效,标志着韩国自主航天对地观测实现零的突破。

基本信息
目录编号:
26032
目录名称:
KOMPSAT
国际标识:
1999-070A
轨道中心:
EARTH
卫星名称:
KOMPSAT
卫星全名:
--
卫星状态:
在轨 (已飞行9670 天)
发射日期:
1999-12-21 UTC
国别 :
韩国 (KR)
星等 :
--
轨道信息
数据来源 国际轨道数据 AOE轨道数据
星历时间 2026-06-12T10:11:06+0800
18小时前
查看轨道信息
2026-06-09T01:00:00+0800
4天前
查看轨道信息
半长轴 7017.846km 7017.88km
偏心率 0.0002599 0.0002499
轨道倾角 98.303° 98.303°
近地点辐角 287.701° 302.165°
升交点赤经 334.683° 331.204°
平近点角 72.391° 85.694°
近地点 637.885km 637.989km
远地点 641.533km 641.497km
周期 97.514分钟 97.514分钟
每日圈数 14.767164 14.767055
详细信息
使用方式:
暂无
2D轨道图
3D轨道图
轨道高度分析图
轨道倾角分析图
轨道综合分析图
查看轨道综合分析图